STARLINK-6122 (56128 NORAD) Tracking and Keplerian Element Data

This shows tracking and keplerian element data for the satellite.

Feedback or suggestion? Click here.




ElementValue
Catalog56128
NameSTARLINK-6122
Epoch Orbit656
Epoch Day127.25001157
Epoch Year2023
RAAN33.7066
Inclination43.0014
Eccentricity0.0001385
Argument of Perigee262.8931
Mean Anonmoly350.5707
Mean Motion15.48877319
Decay Rate0.00073153
L11 56128U 23046AN 23127.25001157 .00073153 00000+0 13180-2 0 9996
L22 56128 43.0014 33.7066 0001385 262.8931 350.5707 15.48877319 6566



Live tracking and technical data element details for STARLINK-6122 (NORAD 56128). STARLINK-6122 can be tracked NOW for your location showing map with azimuth and elevation plus other details from your city location.







IsCatalogInMostPopularTable: catalog: 56128, numindb: 5
Update: records affected: 1



GetName: 56128 STARLINK-6122

Hit Count: updated at: Sat, 03 Jun 2023 18:21:44 GMT